Location: Kernascl�den
(48.0062°N, 3.3198°W)
Time: 12:04:46
(UTC+00:00)

Iridium 4 Rocket - Pass Details

Date: 21 January 2021
Orbit: 583 x 906 km, 86.9° (Epoch: 06 March)

Event Time Altitude Azimuth Distance (km) Brightness Sun altitude
Rises 19:34:50 0° 354° (N) 3,499 7.0 -26.1°
Reaches altitude 10° 19:37:22 10° 351° (N) 2,527 6.3 -26.5°
Maximum altitude 19:42:59 61° 273° (W) 939 4.1 -27.5°
Drops below altitude 10° 19:48:08 10° 194° (SSW) 2,323 6.1 -28.3°
Sets 19:50:24 0° 191° (S) 3,196 6.8 -28.7°
